Phoenix, AZ

6:21 PM MST on February 05, 2016 (GMT -0700)
Phoenix-Deer Valley Municipal

Weather History for KDVT - August, 2013

Change the Weather History Date:

Thursday, August 22, 2013

  Actual Average Record
Temperature  
Mean Temperature 92 °F -  
Max Temperature 100 °F 99 °F 109 °F (1999)
Min Temperature 84 °F 79 °F 69 °F (2014)
Cooling Degree Days 27    
Growing Degree Days 42 (Base 50)    
Moisture  
Dew Point 56 °F    
Average Humidity 30    
Maximum Humidity 43    
Minimum Humidity 21    
Precipitation  
Precipitation 0.00 in - - ()
Sea Level Pressure  
Sea Level Pressure 29.79 in    
Wind  
Wind Speed 5 mph (West)    
Max Wind Speed 14 mph    
Max Gust Speed 18 mph    
Visibility 10 miles    
Events      
Averages and records for this station are not official NWS values.
T = Trace of Precipitation, MM = Missing Value Source: NWS Daily Summary

Daily Weather History Graph

Daily Weather History Graph

Search for Another Location

Airport or City:

Trip Planner

Search our weather history database for the weather conditions in past years. The results will help you decide how hot, cold, wet, or windy it might be!

Date:

Astronomy

Aug. 22, 2013 Rise Set
Actual Time 5:55 AM MST 7:06 PM MST
Civil Twilight 5:29 AM MST 7:31 PM MST
Nautical Twilight 4:58 AM MST 8:02 PM MST
Astronomical Twilight 4:26 AM MST 8:34 PM MST
Moon 8:02 PM MST (8/22) 7:40 AM MST (8/22)
Length of Visible Light 14h 02m
Length of Day
13h 10m
Waning Gibbous, 96% of the Moon is Illuminated
Aug 22
Waning Gibbous
Aug 28
Last Quarter
Sep 5
New
Sep 12
First Quarter
Sep 19
Full

Hourly Weather History & Observations

Time (MST) Temp. Heat Index Dew Point Humidity Pressure Visibility Wind Dir Wind Speed Gust Speed Precip Events Conditions
12:53 AM 86.0 °F 84.9 °F 57.0 °F 37% 29.81 in 10.0 mi NE 3.5 mph - N/A   Clear
1:53 AM 84.0 °F 83.8 °F 59.0 °F 43% 29.81 in 10.0 mi North 5.8 mph - N/A   Clear
2:53 AM 84.0 °F 83.5 °F 57.9 °F 41% 29.81 in 10.0 mi East 4.6 mph - N/A   Clear
3:53 AM 84.0 °F 83.0 °F 55.9 °F 38% 29.81 in 10.0 mi NNE 3.5 mph - N/A   Clear
4:53 AM 84.9 °F 83.7 °F 55.9 °F 37% 29.80 in 10.0 mi NE 6.9 mph - N/A   Clear
5:53 AM 84.0 °F 83.0 °F 55.9 °F 38% 29.81 in 10.0 mi NNE 3.5 mph - N/A   Clear
6:53 AM 84.9 °F 83.9 °F 57.0 °F 38% 29.82 in 10.0 mi East 8.1 mph - N/A   Clear
7:53 AM 90.0 °F 87.9 °F 55.0 °F 30% 29.84 in 10.0 mi Calm Calm - N/A   Clear
8:53 AM 93.0 °F 91.1 °F 55.0 °F 28% 29.84 in 10.0 mi Calm Calm - N/A   Clear
9:53 AM 95.0 °F 93.0 °F 55.0 °F 26% 29.86 in 10.0 mi SSE 3.5 mph - N/A   Partly Cloudy
10:42 AM 95.0 °F 93.0 °F 55.4 °F 26% 29.94 in - Variable 3.5 mph - N/A   Unknown
10:53 AM 95.0 °F 93.4 °F 55.9 °F 27% 29.86 in - Calm Calm - N/A   Partly Cloudy
11:53 AM 97.0 °F 95.0 °F 55.0 °F 24% 29.84 in 10.0 mi North - - N/A   Clear
12:53 PM 99.0 °F 96.9 °F 54.0 °F 22% 29.80 in 10.0 mi West 9.2 mph 16.1 mph N/A   Clear
1:53 PM 100.9 °F 99.1 °F 54.0 °F 21% 29.77 in 10.0 mi WSW 10.4 mph 16.1 mph N/A   Clear
2:53 PM 99.0 °F 96.9 °F 54.0 °F 22% 29.73 in 10.0 mi Variable 4.6 mph - N/A   Clear
3:53 PM 100.9 °F 99.1 °F 54.0 °F 21% 29.70 in 10.0 mi NW 9.2 mph - N/A   Clear
4:53 PM 100.9 °F 99.1 °F 54.0 °F 21% 29.68 in 10.0 mi SW 12.7 mph 18.4 mph N/A   Clear
5:53 PM 99.0 °F 96.9 °F 54.0 °F 22% 29.69 in 10.0 mi SW 11.5 mph - N/A   Clear
6:53 PM 97.0 °F 94.6 °F 54.0 °F 23% 29.71 in 10.0 mi SW 9.2 mph - N/A   Clear
7:53 PM 95.0 °F 92.7 °F 54.0 °F 25% 29.75 in 10.0 mi East 11.5 mph - N/A   Mostly Cloudy
8:53 PM 91.9 °F 89.5 °F 53.1 °F 27% 29.78 in 10.0 mi Variable 3.5 mph - N/A   Clear
9:53 PM 91.0 °F 90.2 °F 59.0 °F 34% 29.78 in 10.0 mi WSW 13.8 mph - N/A   Clear
10:53 PM 89.1 °F 88.0 °F 57.9 °F 35% 29.78 in 10.0 mi West 8.1 mph - N/A   Clear
11:53 PM 87.1 °F 86.5 °F 59.0 °F 39% 29.78 in 10.0 mi SW 6.9 mph - N/A   Clear